Weather History for Opa Locka, FL

Change the Weather History Date:

Friday, March 8, 2013

  Actual Average Record
Temperature  
Mean Temperature 66 °F -  
Max Temperature 78 °F 78 °F 87 °F (1972)
Min Temperature 55 °F 61 °F 39 °F (1962)
Cooling Degree Days 2    
Growing Degree Days 16 (Base 50)    
Moisture  
Dew Point 48 °F    
Average Humidity 57    
Maximum Humidity 87    
Minimum Humidity 27    
Precipitation  
Precipitation 0.00 in - - ()
Sea Level Pressure  
Sea Level Pressure 30.17 in    
Wind  
Wind Speed 6 mph (North)    
Max Wind Speed 10 mph    
Max Gust Speed -    
Visibility 10 miles    
Events      
Averages and records for this station are not official NWS values.
T = Trace of Precipitation, MM = Missing Value Source: NWS Daily Summary

Daily Weather History Graph

Daily Weather History Graph

Search for Another Location

Airport:

Trip Planner

Search our weather history database for the weather conditions in past years. The results will help you decide how hot, cold, wet, or windy it might be!

Date:

Astronomy

Mar. 08, 2013 Rise Set
Actual Time 6:37 AM EST 6:26 PM EST
Civil Twilight 6:14 AM EST 6:49 PM EST
Nautical Twilight 5:47 AM EST 7:16 PM EST
Astronomical Twilight 5:20 AM EST 7:43 PM EST
Moon 4:04 AM EST (3/8) 3:33 PM EST (3/8)
Length of Visible Light 12h 35m
Length of Day
11h 49m
Waning Crescent, 12% of the Moon is Illuminated
Mar 8
Waning Crescent
Mar 11
New
Mar 19
First Quarter
Mar 27
Full
Apr 3
Last Quarter

Hourly Weather History & Observations

Time (EST) Temp. Dew Point Humidity Pressure Visibility Wind Dir Wind Speed Gust Speed Precip Events Conditions
12:53 AM 57.9 °F 53.1 °F 84% 30.17 in 10.0 mi NNW 4.6 mph - N/A   Clear
1:53 AM 57.0 °F 53.1 °F 87% 30.17 in 10.0 mi NNW 6.9 mph - N/A   Clear
2:53 AM 55.9 °F 50.0 °F 80% 30.15 in 10.0 mi NNW 6.9 mph - N/A   Clear
3:53 AM 55.0 °F 51.1 °F 86% 30.15 in 10.0 mi North 6.9 mph - N/A   Clear
4:53 AM 55.0 °F 50.0 °F 83% 30.15 in 10.0 mi NNW 5.8 mph - N/A   Clear
5:53 AM 55.0 °F 50.0 °F 83% 30.16 in 10.0 mi North 6.9 mph - N/A   Clear
6:53 AM 55.9 °F 48.9 °F 77% 30.17 in 10.0 mi North 6.9 mph - N/A   Clear
7:53 AM 60.1 °F 48.9 °F 67% 30.20 in 10.0 mi North 6.9 mph - N/A   Clear
8:53 AM 66.0 °F 48.9 °F 54% 30.20 in 10.0 mi North 10.4 mph - N/A   Clear
9:53 AM 70.0 °F 46.0 °F 42% 30.21 in 10.0 mi NNE 9.2 mph - N/A   Clear
10:53 AM 72.0 °F 45.0 °F 38% 30.21 in 10.0 mi North 9.2 mph - N/A   Clear
11:53 AM 75.0 °F 46.9 °F 37% 30.19 in 10.0 mi Variable 5.8 mph - N/A   Clear
12:53 PM 75.0 °F 46.0 °F 36% 30.17 in 10.0 mi NNE 4.6 mph - N/A   Clear
1:53 PM 77.0 °F 43.0 °F 30% 30.14 in 10.0 mi North 5.8 mph - N/A   Clear
2:53 PM 77.0 °F 43.0 °F 30% 30.13 in 10.0 mi North 8.1 mph - N/A   Clear
3:53 PM 78.1 °F 41.0 °F 27% 30.12 in 10.0 mi North 6.9 mph - N/A   Clear
4:53 PM 77.0 °F 41.0 °F 28% 30.12 in 10.0 mi North 5.8 mph - N/A   Clear
5:53 PM 73.0 °F 48.9 °F 42% 30.14 in 10.0 mi ENE 8.1 mph - N/A   Clear
6:53 PM 68.0 °F 50.0 °F 52% 30.15 in 10.0 mi ENE 4.6 mph - N/A   Clear
7:53 PM 66.9 °F 52.0 °F 59% 30.17 in 10.0 mi NE 3.5 mph - N/A   Clear
8:53 PM 66.9 °F 52.0 °F 59% 30.18 in 10.0 mi NNE 3.5 mph - N/A   Clear
9:53 PM 64.9 °F 52.0 °F 63% 30.19 in 10.0 mi NNE 3.5 mph - N/A   Clear
10:53 PM 64.0 °F 52.0 °F 65% 30.18 in 10.0 mi North 5.8 mph - N/A   Clear
11:53 PM 63.0 °F 50.0 °F 63% 30.17 in 10.0 mi NNE 4.6 mph - N/A   Clear